Location: Newark
(35.8833°N, 14.5000°E)
Time: 00:00:04
(UTC+00:00)

BEESAT - Pass Details

Date: 13 November 2019
Orbit: 700 x 709 km, 98.6° (Epoch: 10 December)

Event Time Altitude Azimuth Distance (km) Brightness Sun altitude
Rises 04:13:19 0° 184° (S) 3,078 ? -16.9°
Reaches altitude 10° 04:15:41 10° 192° (SSW) 2,163 ? -16.4°
Maximum altitude 04:20:06 39° 261° (W) 1,058 ? -15.5°
Enters shadow 04:24:20 11° 329° (NNW) 2,094 ? -14.7°
